Theta_e
296 293 289 292 292 292 291 290 290 293 296 295 295 301 305 307 309 309 313 315 316 318 322 322 321 320 321 320 322 323 324 325 326 331 334 338 337 339 338 338 334 331 327 328
294 291 295 295 295 294 293 290 291 295 297 296 298 301 305 306 310 311 312 313 315 317 318 321 320 317 318 320 321 323 324 327 329 331 335 338 341 340 339 335 331 330 328 328
291 295 298 297 295 294 291 291 292 293 295 296 299 295 302 305 307 308 309 312 314 316 317 319 320 317 317 318 321 323 324 329 331 333 339 334 332 331 330 329 328 328 329 328
293 296 297 294 294 295 289 295 296 294 291 288 297 286 296 304 303 306 308 307 311 315 317 318 319 319 317 317 321 324 325 329 333 336 340 339 340 335 336 333 327 327 329 328
295 295 294 293 297 297 295 296 294 294 289 287 289 288 291 298 302 305 308 309 311 312 314 316 317 319 319 318 320 324 326 328 334 337 340 341 342 340 330 325 326 327 327 328
297 299 299 299 299 299 299 294 292 288 287 284 288 287 288 291 296 299 306 311 314 314 313 315 318 319 320 319 320 323 326 327 333 336 340 340 341 330 326 325 324 325 327 327
296 297 298 300 295 296 294 290 286 285 284 284 288 287 290 296 298 300 302 303 307 312 314 315 314 315 317 317 319 322 325 327 330 335 339 340 339 330 328 325 325 323 325 325
290 291 295 300 296 293 291 291 287 282 283 286 288 286 292 299 300 301 302 304 306 304 306 311 316 316 315 317 320 322 324 327 330 334 337 341 337 332 331 329 326 325 326 327
289 291 300 302 302 301 293 290 292 287 284 283 286 290 297 300 302 303 304 306 306 306 309 313 311 311 315 315 318 322 325 327 330 334 337 340 333 332 330 329 327 326 328 328
294 290 298 302 301 298 296 297 289 287 283 281 284 287 290 297 298 301 302 304 307 309 309 310 321 313 312 315 318 324 328 329 331 335 338 336 333 332 330 327 326 327 328 328
296 293 296 297 295 294 294 291 290 289 287 283 282 287 294 297 300 301 303 307 310 311 313 314 317 323 321 320 323 328 330 331 332 334 336 333 331 331 329 327 327 327 327 327
301 293 290 293 299 301 297 293 291 287 287 286 285 288 299 300 302 306 306 310 312 313 315 318 319 324 325 322 326 329 332 333 334 331 334 332 330 328 328 328 327 327 325 327
301 291 287 290 294 297 297 298 295 291 289 287 286 289 298 306 305 307 307 308 310 312 316 317 318 319 321 327 327 330 333 334 333 331 333 331 328 327 327 327 326 326 326 326
307 293 290 287 290 297 297 299 298 293 287 289 289 292 297 302 303 305 306 306 308 310 311 315 317 317 320 322 329 330 332 332 330 333 334 332 329 328 327 327 325 325 326 326
297 291 295 297 299 298 297 297 299 295 294 291 294 292 298 301 302 304 306 306 307 308 309 310 313 316 318 320 322 330 332 330 329 330 334 333 332 331 328 325 325 325 325 326
294 289 293 292 296 297 295 297 298 297 298 297 296 293 303 304 304 305 304 305 305 306 308 309 311 315 316 317 318 323 330 329 327 327 331 334 333 332 328 326 325 324 324 325
290 289 288 284 293 292 285 292 294 296 301 300 294 299 303 301 301 303 304 305 305 306 308 308 310 312 316 316 317 319 327 330 327 327 331 333 331 331 328 327 326 324 323 324
289 290 288 283 287 280 288 302 304 301 301 303 302 303 303 303 304 305 306 306 306 307 308 309 310 313 316 317 317 320 327 327 327 330 332 333 332 330 330 327 326 324 323 322
292 289 285 283 282 287 294 298 297 296 296 301 302 302 302 303 304 304 305 308 309 308 309 310 313 315 315 315 317 319 322 333 326 326 334 334 333 330 329 326 325 324 323 323
293 292 287 284 282 281 291 297 297 296 290 294 302 302 299 302 294 297 304 308 309 311 311 311 312 314 313 314 317 319 319 324 332 334 333 335 335 331 329 328 326 326 326 323
286 286 284 283 283 287 294 296 296 289 288 293 298 297 296 294 298 301 306 308 310 310 311 312 312 311 312 314 319 318 319 317 322 326 333 335 333 332 332 329 328 327 324 320
284 282 282 283 282 282 295 293 287 291 293 294 297 296 296 297 298 299 301 304 307 308 310 311 311 310 312 314 319 317 315 319 321 323 326 331 335 332 330 329 326 320 315 312
282 285 283 285 285 292 293 292 294 294 293 297 295 296 297 296 297 299 300 304 306 308 309 311 310 310 311 313 317 315 316 319 319 318 318 321 330 330 327 320 317 313 311 308
287 288 284 285 288 289 292 294 294 296 296 296 297 297 297 296 298 299 300 303 305 307 308 309 309 309 310 313 314 316 316 317 315 314 314 313 320 324 321 320 317 313 310 307
287 288 285 284 288 290 291 293 295 296 297 297 298 297 297 298 298 299 300 303 304 306 307 308 307 308 310 312 314 316 315 314 314 313 312 313 314 315 313 313 314 316 311 307
287 285 283 282 288 289 290 295 297 296 296 297 296 297 299 300 299 301 301 303 304 304 306 306 306 307 309 311 312 315 315 313 313 312 312 313 312 312 312 309 307 301 305 303
Wind_Speed
2 5 4 8 6 3 1 3 4 7 6 4 6 7 12 8 6 7 14 15 17 21 17 15 14 13 11 11 11 13 12 11 8 6 7 5 7 4 3 5 10 10 9 10
6 5 8 3 4 4 5 4 7 8 4 5 4 8 9 9 15 18 13 15 20 18 12 15 15 15 16 15 13 13 17 15 13 12 10 5 4 3 6 6 8 8 11 11
6 6 6 5 3 3 4 5 6 9 5 1 2 8 5 3 3 4 8 8 10 17 19 19 17 18 15 17 16 18 18 16 16 15 7 4 5 3 2 3 5 6 9 10
5 3 3 3 3 6 3 6 7 5 4 3 3 6 7 5 5 8 11 10 16 20 15 17 18 17 17 19 18 19 18 19 16 15 13 14 12 9 7 7 4 8 7 9
9 4 4 2 6 6 10 1 2 0 3 4 5 4 9 4 5 10 15 17 18 20 18 18 19 22 21 13 19 20 18 19 19 18 19 15 15 9 4 5 8 7 6 7
8 2 6 9 3 7 1 3 7 5 4 3 5 5 7 4 9 5 6 11 16 19 22 22 24 23 19 15 17 17 20 21 20 20 20 21 20 9 10 10 10 7 6 8
6 5 4 5 2 1 5 7 4 5 4 7 2 4 10 9 10 8 10 9 12 13 14 18 21 21 22 20 23 20 23 24 23 22 21 20 18 15 16 16 12 12 10 8
2 10 1 1 3 2 2 7 7 6 4 7 3 5 9 10 7 8 9 10 11 10 12 13 15 17 17 22 21 21 23 26 22 21 22 17 14 11 11 15 12 11 12 10
4 7 5 5 7 8 3 4 5 6 3 3 4 8 10 6 9 7 8 12 12 15 8 11 10 13 15 18 19 21 18 16 18 19 16 15 16 16 14 15 13 11 12 10
2 4 4 6 2 2 6 5 1 2 2 4 5 4 7 6 9 9 13 14 18 19 20 18 12 10 9 13 10 10 14 17 15 15 15 14 15 15 14 14 16 15 12 13
3 4 8 2 0 2 4 3 4 5 5 7 3 7 8 0 3 7 8 8 13 16 19 18 18 10 7 7 7 11 14 14 14 14 15 15 15 15 14 14 15 15 14 15
3 2 4 9 6 2 2 2 3 5 5 2 4 8 3 7 5 6 7 12 12 12 15 17 17 15 9 7 7 9 12 15 15 12 13 13 12 13 14 15 16 16 16 16
4 2 5 11 7 6 6 3 3 2 2 6 6 7 5 5 7 9 10 12 12 14 16 16 18 18 16 10 7 7 10 12 11 12 15 13 15 16 17 16 15 16 16 17
4 1 5 7 7 0 5 9 3 2 1 4 7 6 11 14 14 13 8 10 10 11 13 14 15 16 16 16 11 10 10 8 7 11 15 16 17 17 15 15 16 17 18 18
4 3 5 7 7 5 11 11 8 5 9 8 7 8 4 6 8 7 7 11 12 12 13 13 15 15 16 17 16 12 11 6 7 10 12 16 14 15 14 16 17 17 18 17
1 5 3 5 11 12 11 11 12 15 15 14 9 3 2 6 5 3 6 10 12 14 15 15 14 15 15 16 15 16 12 7 9 13 14 11 11 16 16 16 17 17 16 16
2 2 2 5 7 5 6 8 14 5 6 4 4 2 5 6 11 3 4 7 10 13 15 15 15 15 15 15 17 16 13 9 10 13 14 13 13 15 16 16 15 15 15 13
4 3 2 4 4 4 5 6 7 8 6 5 3 5 6 7 12 8 4 5 9 11 13 14 13 14 16 16 14 16 15 8 11 12 14 13 15 15 12 12 16 17 17 18
6 5 2 2 3 6 5 4 6 6 2 6 5 5 6 6 9 6 7 7 9 10 10 10 11 12 14 15 16 14 15 8 6 11 13 14 13 12 13 15 15 14 19 19
6 4 4 1 3 5 3 6 10 3 5 9 7 4 7 8 6 5 7 11 13 12 11 11 13 12 11 15 14 14 13 12 6 7 9 10 12 15 17 16 16 17 15 19
4 3 2 1 4 6 4 7 10 1 6 16 6 6 10 7 8 14 15 13 12 13 13 11 10 12 10 12 14 15 12 12 12 14 12 11 14 14 16 15 12 10 7 8
1 1 2 1 2 7 5 6 2 5 14 10 9 14 13 16 18 17 16 14 14 16 16 12 9 12 12 8 9 12 14 15 11 11 13 9 10 10 9 12 8 10 11 4
2 4 3 7 7 1 1 6 8 6 9 8 16 17 15 18 18 18 15 14 13 14 15 12 10 12 14 8 6 10 9 11 12 10 8 8 7 9 11 14 15 13 14 9
1 2 2 5 2 8 14 12 4 5 14 15 16 16 16 18 17 16 16 14 13 13 13 13 11 12 14 11 6 6 10 10 6 6 5 7 5 7 10 11 13 14 16 15
5 3 3 5 9 11 7 9 15 16 16 17 17 17 18 17 18 18 16 15 13 13 12 11 10 12 14 15 11 7 5 5 6 4 3 2 5 4 6 5 1 6 8 20
4 6 4 6 6 8 16 17 18 18 20 20 20 21 19 19 21 20 17 16 13 13 11 11 11 10 13 13 14 11 5 2 4 6 3 3 4 4 6 7 7 14 5 15
Wind_Direction
13 77 208 222 196 184 248 228 256 255 246 226 236 252 274 196 212 215 206 206 213 218 211 207 210 211 200 199 194 190 187 196 169 172 180 189 200 172 177 176 166 161 155 159
21 251 228 171 161 194 225 264 274 280 265 172 142 250 258 179 215 207 200 205 215 229 223 218 197 204 208 201 198 201 199 192 191 196 199 197 182 184 177 170 167 170 161 164
164 229 113 168 190 221 225 205 252 222 337 262 29 319 314 270 254 209 223 220 240 228 225 232 213 207 202 206 197 202 202 196 197 202 161 90 81 72 73 177 160 161 165 170
231 256 204 166 234 153 290 203 247 277 79 219 72 268 300 280 248 215 227 220 228 235 230 234 234 230 214 206 202 207 200 197 197 180 183 183 193 182 195 186 165 148 174 170
249 199 192 187 223 168 234 157 299 216 112 44 319 70 265 307 266 245 236 229 234 236 229 230 230 235 227 208 208 205 199 203 194 186 187 190 200 192 136 127 155 158 153 131
238 218 168 211 189 190 297 88 42 53 78 51 259 133 290 215 228 247 265 252 246 241 228 226 225 228 227 209 209 205 203 204 197 191 190 192 198 158 147 156 164 168 166 150
321 253 242 168 293 106 77 56 340 344 6 219 172 89 234 268 263 225 258 253 250 255 244 232 230 227 223 208 204 200 200 205 199 195 192 195 195 171 167 167 170 165 170 186
87 325 359 115 207 250 152 149 161 225 226 259 86 239 248 229 293 261 267 265 289 260 263 256 250 241 230 223 212 205 200 205 197 195 199 191 176 174 173 174 172 181 176 188
174 266 292 227 205 147 226 202 192 117 23 67 245 297 306 301 285 319 324 358 333 336 317 280 258 253 239 221 215 207 205 209 201 201 191 185 169 169 172 172 173 176 174 178
251 306 264 295 355 45 168 164 93 2 224 254 289 278 237 288 343 336 5 356 346 349 349 342 322 310 260 226 216 198 208 203 194 188 190 182 173 167 166 165 173 176 178 173
37 126 287 345 198 211 340 281 43 122 143 175 205 257 215 15 348 7 356 358 352 349 342 343 339 327 324 302 180 190 195 190 186 178 183 176 171 169 165 172 178 178 170 175
28 150 265 235 269 352 203 313 123 127 275 219 165 264 145 95 64 21 15 5 355 351 345 344 345 342 331 315 292 236 198 201 192 177 179 177 164 164 169 179 181 176 175 175
326 334 349 335 355 17 50 27 126 124 78 214 143 262 143 67 48 15 20 4 354 350 348 349 357 354 349 307 281 255 250 232 193 179 179 174 175 175 182 181 176 179 174 173
118 79 179 203 257 317 304 320 303 167 182 247 224 277 307 2 359 355 6 354 350 351 349 340 345 348 346 339 285 265 254 231 216 193 185 185 184 184 183 178 178 180 179 177
94 249 204 238 251 279 288 282 254 236 234 234 256 239 20 334 324 322 350 342 354 353 351 347 340 336 335 343 342 283 258 206 195 209 219 204 188 180 176 178 180 182 184 180
27 257 202 262 260 256 260 270 267 272 264 253 253 213 297 281 300 356 342 350 353 347 342 339 336 330 329 329 328 324 273 232 194 203 217 213 211 182 181 184 183 181 183 176
260 185 75 257 274 341 312 249 253 268 48 332 20 329 325 327 333 357 319 351 342 339 335 334 329 326 322 318 317 314 314 247 207 212 212 202 192 199 190 181 182 183 174 172
210 128 150 254 354 211 228 12 47 95 66 25 18 13 340 315 309 321 230 347 331 324 327 327 326 324 320 314 312 314 306 246 220 219 218 207 197 195 188 201 190 176 162 173
175 140 209 202 213 289 329 20 10 8 56 358 317 305 315 300 299 280 13 339 302 293 294 298 309 315 316 314 314 320 314 315 228 233 222 213 203 194 188 198 204 201 174 189
93 77 126 153 230 250 259 344 316 243 224 16 328 295 318 320 300 280 304 309 298 281 283 294 307 314 321 317 317 316 314 314 299 230 224 226 211 204 200 196 202 199 202 198
337 20 202 198 258 285 10 318 319 268 301 331 308 319 316 302 282 295 296 287 283 290 289 285 287 301 300 306 319 319 311 302 311 318 286 219 198 207 204 195 192 210 262 246
201 39 258 54 275 275 357 349 29 258 316 295 318 316 301 303 301 299 300 299 296 297 299 294 284 291 295 293 303 315 318 318 307 301 302 284 226 192 193 185 156 116 95 255
280 180 215 182 233 33 0 216 260 268 268 287 310 302 294 302 300 301 298 297 296 289 290 293 283 288 294 279 284 302 302 312 325 322 336 302 251 176 158 140 136 131 147 118
333 95 236 9 342 307 312 307 269 274 286 285 278 279 288 286 288 291 288 289 291 291 287 289 294 290 289 290 267 276 305 304 316 309 336 328 296 173 156 170 167 166 150 156
207 22 240 261 288 299 272 284 298 301 297 287 282 277 273 275 276 278 277 276 276 280 283 282 278 283 285 289 283 268 266 302 293 283 304 16 21 95 79 52 226 219 172 147
195 203 168 246 249 264 282 292 299 297 291 290 290 292 285 280 277 279 274 273 269 269 274 278 276 272 280 285 286 280 231 223 267 276 251 185 127 134 129 126 80 35 122 138